Port Hope, MI

6:49 PM EST on November 18, 2017 (GMT -0500)
Port Hope

Weather History for KP58 - August, 2013

Change the Weather History Date:

Thursday, August 29, 2013

  Actual Average Record
Temperature  
Mean Temperature 70 °F -  
Max Temperature 79 °F 72 °F 86 °F (2010)
Min Temperature 63 °F 58 °F 54 °F (2001)
Cooling Degree Days 6    
Growing Degree Days 20 (Base 50)    
Moisture  
Dew Point 66 °F    
Average Humidity 84    
Maximum Humidity 97    
Minimum Humidity 74    
Precipitation  
Precipitation 0.00 in - - ()
Sea Level Pressure  
Sea Level Pressure 30.03 in    
Wind  
Wind Speed 1 mph (East)    
Max Wind Speed 7 mph    
Max Gust Speed -    
Averages and records for this station are not official NWS values.
T = Trace of Precipitation, MM = Missing Value Source: NWS Daily Summary

Daily Weather History Graph

Daily Weather History Graph

Search for Another Location

Airport or City:

Trip Planner

Search our weather history database for the weather conditions in past years. The results will help you decide how hot, cold, wet, or windy it might be!

Date:

Astronomy

Aug. 29, 2013 Rise Set
Actual Time 6:51 AM EDT 8:11 PM EDT
Civil Twilight 6:21 AM EDT 8:41 PM EDT
Nautical Twilight 5:45 AM EDT 9:17 PM EDT
Astronomical Twilight 5:06 AM EDT 9:55 PM EDT
Moon 12:35 AM EDT (8/29) 3:46 PM EDT (8/29)
Length of Visible Light 14h 20m
Length of Day
13h 20m
Last Quarter, 38% of the Moon is Illuminated
Aug 29
Last Quarter
Sep 5
New
Sep 12
First Quarter
Sep 19
Full
Sep 26
Last Quarter

Hourly Weather History & Observations

Time (EDT) Temp. Dew Point Humidity Pressure Visibility Wind Dir Wind Speed Gust Speed Precip Events Conditions
12:51 AM 66.9 °F 64.9 °F 93% 30.01 in - Calm Calm - N/A   Unknown
1:51 AM 66.0 °F 64.9 °F 96% 30.01 in - Calm Calm - N/A   Unknown
2:51 AM 66.0 °F 64.0 °F 93% 30.01 in - Calm Calm - N/A   Unknown
3:51 AM 64.9 °F 63.0 °F 93% 30.01 in - Calm Calm - N/A   Unknown
4:51 AM 64.0 °F 63.0 °F 96% 30.02 in - Calm Calm - N/A   Unknown
5:51 AM 63.0 °F 62.1 °F 97% 30.03 in - Calm Calm - N/A   Unknown
6:51 AM 64.0 °F 63.0 °F 96% 30.03 in - Calm Calm - N/A   Unknown
7:51 AM 64.9 °F 64.0 °F 97% 30.05 in - Calm Calm - N/A   Unknown
8:51 AM 72.0 °F 66.9 °F 84% 30.05 in - Variable 3.5 mph - N/A   Unknown
9:51 AM 75.9 °F 66.9 °F 74% 30.05 in - Calm Calm - N/A   Unknown
10:51 AM 75.9 °F 68.0 °F 76% 30.07 in - Variable 3.5 mph - N/A   Unknown
11:51 AM 75.0 °F 69.1 °F 82% 30.08 in - NW 5.8 mph - N/A   Unknown
12:51 PM 75.9 °F 68.0 °F 76% 30.06 in - Calm Calm - N/A   Unknown
1:51 PM 75.9 °F 68.0 °F 76% 30.06 in - Calm Calm - N/A   Unknown
2:51 PM 75.9 °F 68.0 °F 76% 30.06 in - NNE 3.5 mph - N/A   Unknown
3:51 PM 75.0 °F 69.1 °F 82% 30.05 in - East 3.5 mph - N/A   Unknown
4:51 PM 77.0 °F 69.1 °F 76% 30.03 in - ESE 5.8 mph - N/A   Unknown
5:51 PM 78.1 °F 70.0 °F 76% 30.02 in - East 6.9 mph - N/A   Unknown
6:51 PM 78.1 °F 70.0 °F 76% 30.01 in - ESE 4.6 mph - N/A   Unknown
7:51 PM 75.0 °F 66.9 °F 76% 30.01 in - Calm Calm - N/A   Unknown
8:51 PM 73.0 °F 66.0 °F 79% 30.01 in - Variable 3.5 mph - N/A   Unknown
9:51 PM 71.1 °F 64.9 °F 81% 30.00 in - Calm Calm - N/A   Unknown
10:51 PM 70.0 °F 64.0 °F 81% 29.99 in - Calm Calm - N/A   Unknown
11:51 PM 70.0 °F 63.0 °F 78% 29.97 in - Calm Calm - N/A   Unknown